Regional Weather Roundup
Issued by NWS

Home | Current Version | Previous Version | Text Only | Print | Product List | Glossary On
Versions: 1 2 3 4 5 6 7 8 9 10 11 12 13 14 15 16 17 18 19 20 21 22 23 24 25 26 27 28 29 30 31 32 33 34 35 36 37 38 39 40 41 42 43 44 45 46 47 48 49 50
000
ASUS43 KMPX 270810
RWRMN
WEATHER ROUNDUP FOR MINNESOTA
NATIONAL WEATHER SERVICE TWIN CITIES/CHANHASSEN MN
300 AM CDT WED JUL 27 2016


NOTE: "FAIR" INDICATES FEW OR NO CLOUDS BELOW 12,000 FEET WITH NO
SIGNIFICANT WEATHER AND/OR OBSTRUCTIONS TO VISIBILITY. N/A MEANS
CURRENT SKY AND/OR WEATHER CONDITIONS ARE NOT AVAILABLE.

MNZ060>063-068>070-270900-
   Twin Cities Metro

CITY           SKY/WX    TMP DP  RH WIND       PRES   REMARKS
TWIN CITIES    CLOUDY    79  68  69 SW8       29.97S
ST PAUL        MOCLDY    77  68  73 S3        29.96S
CRYSTAL        CLOUDY    79  66  64 SW10      29.94F
BLAINE         CLOUDY    77  70  78 S5        29.96S
LAKEVILLE      MOCLDY    73  70  88 CALM      29.98S
EDEN PRAIRIE   CLOUDY    76  69  79 SW8       29.96S
LAKEVILLE      MOCLDY    73  70  88 CALM      29.98S
SOUTH ST PAUL  CLOUDY    76  68  75 CALM      29.96F
LAKE ELMO      FAIR      72  68  88 CALM      29.98F
$$
MNZ001>005-007-008-013>017-022>024-027-028-270900-
   Northwest Minnesota

CITY           SKY/WX    TMP DP  RH WIND       PRES   REMARKS
BEMIDJI        CLOUDY    68  61  77 CALM      29.99R
HALLOCK        MOCLDY    61  57  88 NE5       30.04S
ROSEAU         PTCLDY    61  55  82 N3        30.03S
WARROAD        PTCLDY    61  55  82 N2        30.03R
THIEF RVR FALL CLOUDY    64  59  83 E6        30.03S
CROOKSTON      CLOUDY    63  63 100 NE6       30.01F
FOSSTON        CLOUDY    64  57  77 N7        30.01R
DETROIT LAKES  CLOUDY    68  64  88 W3        30.00R
MOORHEAD       CLOUDY    66  64  94 NE8       29.97S
PARK RAPIDS    CLOUDY    71  64  78 VRB3      29.97R
MAHNOMEN       LGT RAIN  66  65  98 N6        29.99R
$$
MNZ006-009>011-018-025>026-270900-
   North Central Minnesota

CITY           SKY/WX    TMP DP  RH WIND       PRES   REMARKS
BAUDETTE       CLOUDY    66  56  70 N8        30.01R
INTL FALLS     CLOUDY    68  57  68 NE3       29.99S
WASKISH        CLOUDY    64  57  77 N7        29.98F
BIG FORK       CLOUDY    64  63  94 CALM      29.99R FOG
LONGVILLE      CLOUDY    66  64  94 CALM      29.97R
GRAND RAPIDS   CLOUDY    64  64 100 CALM      29.99R
CRANE LAKE     MOCLDY    55  55 100 CALM      30.01R
ORR            MOCLDY    63  55  77 CALM      29.97R
COOK           CLOUDY    64  61  88 CALM      29.98S
WALKER         FAIR      68  67  95 CALM      29.97R
$$
MNZ012-019>021-037-270900-
   Northeast Minnesota

CITY           SKY/WX    TMP DP  RH WIND       PRES   REMARKS
DULUTH         MOCLDY    69  67  93 CALM      29.96F
ELY            CLOUDY    66  57  72 SE3       29.98F
HIBBING        CLOUDY    61  60  97 CALM      29.97S
EVELETH        CLOUDY    65  58  79 NE3       29.98S
DULUTH HARBOR  CLOUDY    70  68  94 S3        29.94S
TWO HARBORS    CLOUDY    70  64  83 CALM      29.95S
SILVER BAY     CLOUDY    70  57  64 N3        29.95R
GRAND MARAIS     N/A     71  50  47 VRB6      29.93F
G MARAIS ARPRT CLOUDY    61  50  67 N7        30.00F
$$
MNZ029>031-032-039>041-046>048-054>057-064-270900-
   West Central Minnesota

CITY           SKY/WX    TMP DP  RH WIND       PRES   REMARKS
FERGUS FALLS   DRIZZLE   66  66 100 W6        29.99R
WHEATON        RAIN      70  68  94 W3        30.00S
MORRIS         LGT RAIN  70  66  88 CALM      29.97S
ALEXANDRIA     CLOUDY    70  67  90 S5        29.99S
ELBOW LAKE     LGT RAIN  67  67  98 SW8       29.99R
WADENA         CLOUDY    64  64 100 CALM      29.96S
GLENWOOD       LGT RAIN  70  66  88 CALM      29.99S
APPLETON       CLOUDY    72  66  83 E5        29.95F
BENSON         CLOUDY    66  63  88 CALM      29.96F
ORTONVILLE     TSTM      68  63  83 NW10G25   29.97R
MADISON        CLOUDY    70  66  88 CALM      29.95S
WILLMAR        DRIZZLE   72  68  88 CALM      30.00R
$$
MNZ033>034-036-042>043-049>051-058-059-270900-
   Central Minnesota

CITY           SKY/WX    TMP DP  RH WIND       PRES   REMARKS
ST CLOUD       CLOUDY    68  66  93 CALM      29.97R
SAUK CENTRE    PTSUNNY   70  65  84 CALM      29.98F
PAYNESVILLE    LGT RAIN  68  68 100 CALM      29.99F
AITKIN         FOG       61  57  88 CALM      29.96R VSB 1
PINE RIVER     CLOUDY    64  64 100 CALM      30.00R
BRAINERD       CLOUDY    63  62  97 CALM      29.97R
STAPLES        CLOUDY    64  63  94 CALM      29.97R
LONG PRAIRIE   FAIR      68  66  94 S3        29.99R
LITTLE FALLS   CLOUDY    64  63  94 CALM      29.97F
LITCHFIELD     CLOUDY    73  73 100 CALM      29.98F
BUFFALO        CLOUDY    75  69  81 SW6       29.97F
MAPLE LAKE     CLOUDY    76  71  86 W3        29.98R
HUTCHINSON     CLOUDY    74  71  89 SW3       29.99S
$$
MNZ037-044-045-052-053-270900-
   East Central Minnesota

CITY           SKY/WX    TMP DP  RH WIND       PRES   REMARKS
PRINCETON      LGT RAIN  70  64  83 CALM      29.97R
MORA           CLOUDY    64  64 100 CALM      29.98S
CAMBRIDGE      CLOUDY    72  61  68 CALM      29.95R
RUSH CITY      CLOUDY    67  64  88 CALM      29.96F
MOOSE LAKE     CLOUDY    63  61  94 CALM      29.95S
HINCKLEY       PTSUNNY   64  64 100 CALM      29.97S
CLOQUET        CLOUDY    64  61  88 CALM      29.96F
MCGREGOR       CLOUDY    63  61  94 CALM      29.98R
$$
MNZ071>073-080-081-089-090-097-098-270900-
   Southwest Minnesota

CITY           SKY/WX    TMP DP  RH WIND       PRES   REMARKS
MONTEVIDEO     CLOUDY    70  66  88 S6        29.97F
GRANITE FALLS  CLOUDY    73  70  88 SE5       29.98S
CANBY          CLOUDY    70  65  86 E5        29.95F
MARSHALL       CLOUDY    72  68  87 SE8       29.96F
REDWOOD FALLS  CLOUDY    73  67  81 S5        29.98R
OLIVIA         CLOUDY    72  68  88 S3        29.98R
PIPESTONE      MOCLDY    72  66  83 S8        29.98F
WINDOM         PTCLDY    70  64  83 S6        30.00S
WORTHINGTON    PTCLDY    71  65  81 S12       30.00F
JACKSON        PTCLDY    70  63  78 SW6       30.01S
TRACY          CLOUDY    72  68  88 S5        29.98F
SLAYTON        CLOUDY    69  66  90 S8        29.99F
$$
MNZ065>067-074>077-082>085-091>093-270900-
   South Central Minnesota

CITY           SKY/WX    TMP DP  RH WIND       PRES   REMARKS
MANKATO        PTCLDY    72  64  78 S3        30.00R
NEW ULM        MOCLDY    70  70 100 S3        29.99S
ST JAMES       PTCLDY    63  63 100 CALM      30.01R
FAIRMONT       CLOUDY    70  64  83 SW7       30.00R
GLENCOE        MOCLDY    74  72  91 CALM      29.98R
FARIBAULT      CLOUDY    72  70  94 CALM      30.00S
OWATONNA       CLOUDY    70  66  88 CALM      30.01R
WASECA         PTCLDY    68  64  88 S3        30.02R
ALBERT LEA     PTCLDY    72  66  83 SW5       30.01S
$$
MNZ078>079-086>088-094>096-270900-
   Southeast Minnesota

CITY           SKY/WX    TMP DP  RH WIND       PRES   REMARKS
ROCHESTER      CLEAR     67  65  93 CALM      30.01F
RED WING       PTCLDY    70  66  88 W3        29.97R
STANTON        CLOUDY    70  66  88 CALM      29.98R
DODGE CENTER   PTCLDY    64  63  94 CALM      30.01S FOG
WINONA         CLEAR     70  68  94 SW3       29.98F
AUSTIN         PTCLDY    68  64  88 SW3       30.01S
PRESTON        PTCLDY    68  64  86 W3        30.02R
$$
ABBREVIATIONS USED IN REMARKS
   TC - TEMPERATURES IN CELSIUS
  WCI - WIND CHILL INDEX
   HX - HEAT INDEX
  VSB - VISIBILITY
$$



USA.gov is the U.S. government's official web portal to all federal, state and local government web resources and services.